sat.trackr.live / text

‹ back to catalog

IRIDIUM 109

NORAD 41919 · 2017-003C

PAYLOAD ACTIVE UNKNOWN

§ Identity

Operator
Country
US
Launch date
2017-01-14
Launch site
AFWTR
Launch vehicle
Mass (kg)
RCS (m²)
2.80

Purposes: comms

External: N2YO · Heavens-Above · Gunter

§ Orbital elements

Epoch: 2026-09-20T04:24:27.354816Z

Period
100.40 min
Inclination
86.3949°
Eccentricity
0.0002155
Mean motion
14.34215286 rev/d
Perigee alt
776.1 km
Apogee alt
779.2 km
Semi-major
7,155.8 km
B*
5.1841e-5
RAAN
48.7674°
Arg perigee
91.8621°
Mean anomaly
268.2822°
Rev number
50,681

§ Raw data

IRIDIUM 1091 41919U 17003C   26263.18364994  .00000165  00000+0  51841-4 0  99922 41919  86.3949  48.7674 0002155  91.8621 268.2822 14.34215286506817

JSON: /api/v1/satellites/41919 · /tle

For live sub-satellite position, see the globe view (requires WebGL).

§ Visibility from observer

Set your observer location to see the next 7 days of passes ≥ 10°. The values pass through the URL so the page stays shareable.

No JS? Fill the form by hand. The geolocation button needs JavaScript.